Lid_Strength_Index
11 12 14 13 13 12 12 13 13 12 11 11 12 12 10 8 8 9 8 8 9 8 7 7 6 6 6 6 6 7 6 6 4 3 2 2 2 2 2 1 1 1 0 0
12 13 11 10 11 11 12 13 13 12 11 11 12 12 10 9 9 9 8 9 9 9 8 7 7 6 6 5 5 5 4 4 5 5 3 2 2 3 2 2 2 2 2 1
13 11 9 10 11 11 13 13 13 13 11 10 11 14 13 9 9 9 9 9 9 10 9 9 7 7 6 5 5 4 4 3 3 3 3 3 3 3 4 4 3 3 3 2
12 10 10 11 11 12 14 11 11 12 14 15 14 17 14 11 11 10 10 10 9 9 8 7 7 7 7 6 6 5 5 4 3 3 3 3 3 3 2 2 2 2 1 2
11 11 11 11 11 10 12 10 11 12 15 16 15 17 17 12 12 11 10 9 9 8 8 8 8 8 7 6 6 6 6 6 6 5 4 4 4 3 2 2 2 3 2 2
11 9 10 10 10 10 10 12 13 15 15 17 16 15 15 14 12 10 8 9 7 8 8 8 7 7 6 6 7 7 8 8 7 6 6 5 5 5 5 5 4 4 3 2
11 11 9 8 11 10 11 14 17 17 18 18 14 15 14 11 9 9 8 8 8 8 8 7 7 7 7 7 7 8 8 8 7 6 5 5 5 5 5 5 5 5 5 4
14 14 11 9 11 12 14 14 17 19 19 18 14 16 13 9 8 7 8 8 7 8 7 7 7 7 7 6 7 8 8 7 6 6 6 5 5 5 5 5 5 5 4 4
14 13 9 9 9 10 13 15 14 16 17 18 16 13 10 9 9 8 8 8 8 7 6 6 6 6 6 6 6 7 7 6 6 6 5 5 5 5 5 4 4 4 4 3
11 14 10 9 10 10 12 11 15 16 19 20 18 16 15 13 11 9 8 8 7 6 6 6 6 6 5 6 6 6 6 6 5 5 5 5 4 4 5 4 4 4 3 3
12 13 13 11 12 13 12 14 14 15 16 18 20 17 12 11 10 9 8 7 6 6 6 6 6 5 5 6 7 6 6 6 6 5 5 5 4 4 4 4 4 4 4 3
11 14 15 14 10 9 11 13 14 16 17 17 17 16 10 9 8 8 8 7 6 6 6 6 5 5 6 6 6 7 7 7 6 5 5 5 4 4 4 4 4 4 4 4
11 15 17 15 12 11 12 11 13 15 16 17 18 16 10 9 9 7 7 7 6 6 6 6 6 5 5 6 6 6 6 7 6 5 5 4 5 5 5 5 5 5 4 4
8 14 15 17 16 13 13 11 12 13 17 16 16 14 11 11 11 10 8 7 8 8 5 6 6 6 6 6 6 6 6 5 5 5 5 4 4 4 5 5 5 5 4 4
12 14 14 14 11 11 12 11 12 13 13 15 13 14 12 11 10 8 7 7 6 6 6 6 6 6 6 6 6 5 5 4 4 4 4 4 4 3 3 4 4 4 3 3
11 14 12 14 11 11 12 11 11 12 12 13 13 14 11 8 8 8 7 7 7 6 6 5 4 4 5 5 5 4 3 2 2 4 4 2 2 3 3 3 3 3 3 4
12 13 14 16 12 13 15 12 12 12 12 13 15 13 9 9 8 8 7 7 7 6 6 5 5 4 4 4 4 3 3 2 3 3 3 3 3 3 3 3 3 4 4 3
13 14 14 16 15 20 12 10 10 11 10 10 10 9 8 8 8 7 6 6 6 6 5 5 5 5 5 4 4 3 3 4 3 3 3 3 3 4 4 4 4 3 3 4
11 13 16 17 17 14 12 10 11 12 12 9 9 9 8 7 7 8 5 5 5 5 5 5 5 5 5 5 4 4 4 4 3 3 3 4 4 4 4 4 4 4 4 4
11 12 13 16 18 19 13 9 8 9 14 8 8 8 8 8 12 10 6 5 5 5 5 6 6 6 6 5 4 5 5 4 4 4 3 3 4 4 5 5 5 4 4 4
13 14 15 17 18 15 10 8 8 14 13 8 8 8 9 9 9 8 5 6 6 6 6 5 6 6 5 4 4 5 5 5 4 3 3 3 4 4 4 5 5 5 5 4
14 15 16 16 18 17 9 8 11 10 9 8 8 8 9 8 7 6 6 6 6 6 6 5 6 7 6 6 6 6 5 3 2 3 3 4 5 4 4 4 4 4 4 4
14 13 14 14 14 11 9 9 8 8 9 9 9 8 8 7 7 6 7 7 6 7 6 6 7 7 6 5 4 4 3 3 3 4 5 5 5 4 5 4 4 4 4 4
11 10 12 12 11 10 8 8 7 7 8 8 7 7 6 7 6 7 7 7 7 7 7 7 7 6 6 4 4 4 3 3 4 5 5 5 5 5 4 4 4 4 3 3
11 11 12 12 11 10 9 8 8 8 7 7 6 6 6 6 7 7 7 7 7 8 7 6 5 5 4 4 3 3 3 3 4 5 5 5 5 5 4 4 3 2 2 3
10 11 13 13 10 10 9 8 8 7 7 6 6 6 6 6 7 7 8 7 8 7 5 4 4 4 3 3 4 3 3 2 4 5 5 5 5 5 3 4 4 4 5 5